Time,TemperatureF,DewpointF,PressureIn,WindDirection,WindDirectionDegrees,WindSpeedMPH,WindSpeedGustMPH,Humidity,HourlyPrecipIn,Conditions,Clouds,dailyrainin,SoftwareType,DateUTC
2013-05-06 00:01:00,47.9,37.0,29.80,NNE,22,0.0,0.0,65,0.00,,,0.00,Rainwise IP-100,2013-05-06 04:01:00,
2013-05-06 00:06:00,47.8,37.0,29.80,NNE,22,0.0,0.0,65,0.00,,,0.00,Rainwise IP-100,2013-05-06 04:06:00,
2013-05-06 00:11:00,47.4,36.0,29.80,NNE,22,0.0,0.0,65,0.00,,,0.00,Rainwise IP-100,2013-05-06 04:11:00,
2013-05-06 00:16:00,46.8,36.0,29.80,NNE,22,0.0,0.0,66,0.00,,,0.00,Rainwise IP-100,2013-05-06 04:16:00,
2013-05-06 00:21:00,46.4,36.0,29.80,NNE,22,0.0,0.0,67,0.00,,,0.00,Rainwise IP-100,2013-05-06 04:21:00,
2013-05-06 00:26:00,46.1,36.0,29.80,NNE,22,0.0,0.0,68,0.00,,,0.00,Rainwise IP-100,2013-05-06 04:26:00,
2013-05-06 00:31:00,46.0,36.0,29.80,NNE,22,0.0,0.0,69,0.00,,,0.00,Rainwise IP-100,2013-05-06 04:31:00,
2013-05-06 00:36:00,46.0,37.0,29.80,NNE,22,0.0,1.6,70,0.00,,,0.00,Rainwise IP-100,2013-05-06 04:36:00,
2013-05-06 00:41:00,45.9,37.0,29.79,NNE,22,0.0,1.6,70,0.00,,,0.00,Rainwise IP-100,2013-05-06 04:41:00,
2013-05-06 00:46:00,45.7,37.0,29.79,NNE,22,0.0,1.4,70,0.00,,,0.00,Rainwise IP-100,2013-05-06 04:46:00,
2013-05-06 00:51:00,45.6,37.0,29.79,NNE,22,0.0,0.0,71,0.00,,,0.00,Rainwise IP-100,2013-05-06 04:51:00,
2013-05-06 00:56:00,45.6,37.0,29.80,NNE,22,0.0,0.0,71,0.00,,,0.00,Rainwise IP-100,2013-05-06 04:56:00,
2013-05-06 01:01:00,45.5,37.0,29.79,NW,315,1.4,2.6,72,0.00,,,0.00,Rainwise IP-100,2013-05-06 05:01:00,
2013-05-06 01:06:00,45.5,37.0,29.80,NW,315,0.0,2.8,72,0.00,,,0.00,Rainwise IP-100,2013-05-06 05:06:00,
2013-05-06 01:11:00,45.3,37.0,29.80,NNW,337,0.0,1.4,72,0.00,,,0.00,Rainwise IP-100,2013-05-06 05:11:00,
2013-05-06 01:16:00,45.0,37.0,29.80,NNW,337,0.0,2.3,72,0.00,,,0.00,Rainwise IP-100,2013-05-06 05:16:00,
2013-05-06 01:21:00,44.7,37.0,29.80,NNW,337,0.0,0.0,73,0.00,,,0.00,Rainwise IP-100,2013-05-06 05:21:00,
2013-05-06 01:27:00,44.3,36.0,29.80,NNW,337,0.0,1.6,74,0.00,,,0.00,Rainwise IP-100,2013-05-06 05:27:00,
2013-05-06 01:32:00,43.9,37.0,29.79,NNW,337,0.0,1.4,75,0.00,,,0.00,Rainwise IP-100,2013-05-06 05:32:00,
2013-05-06 01:37:00,43.8,37.0,29.79,NNW,337,0.0,1.6,75,0.00,,,0.00,Rainwise IP-100,2013-05-06 05:37:00,
2013-05-06 01:42:00,43.8,37.0,29.79,NNW,337,0.0,2.6,76,0.00,,,0.00,Rainwise IP-100,2013-05-06 05:42:00,
2013-05-06 01:47:00,43.8,37.0,29.79,NNW,337,2.6,2.6,77,0.00,,,0.00,Rainwise IP-100,2013-05-06 05:47:00,
2013-05-06 01:52:00,43.8,37.0,29.79,NNW,337,3.5,4.0,77,0.00,,,0.00,Rainwise IP-100,2013-05-06 05:52:00,
2013-05-06 01:57:00,43.9,37.0,29.79,NW,315,1.6,4.2,77,0.00,,,0.00,Rainwise IP-100,2013-05-06 05:57:00,
2013-05-06 02:02:00,43.9,37.0,29.79,NNW,337,4.2,4.7,77,0.00,,,0.00,Rainwise IP-100,2013-05-06 06:02:00,
2013-05-06 02:07:00,43.7,37.0,29.79,NW,315,2.8,4.4,77,0.00,,,0.00,Rainwise IP-100,2013-05-06 06:07:00,
2013-05-06 02:12:00,43.5,37.0,29.79,NNW,337,1.2,4.0,77,0.00,,,0.00,Rainwise IP-100,2013-05-06 06:12:00,
2013-05-06 02:17:00,43.2,37.0,29.79,NNW,337,0.0,2.6,78,0.00,,,0.00,Rainwise IP-100,2013-05-06 06:17:00,
2013-05-06 02:22:00,43.0,37.0,29.79,NNW,337,0.0,1.9,78,0.00,,,0.00,Rainwise IP-100,2013-05-06 06:22:00,
2013-05-06 02:27:00,42.7,37.0,29.79,NNW,337,2.1,3.0,79,0.00,,,0.00,Rainwise IP-100,2013-05-06 06:27:00,
2013-05-06 02:32:00,42.6,37.0,29.79,NNW,337,1.6,3.3,79,0.00,,,0.00,Rainwise IP-100,2013-05-06 06:32:00,
2013-05-06 02:37:00,42.5,37.0,29.78,NNW,337,0.0,2.6,80,0.00,,,0.00,Rainwise IP-100,2013-05-06 06:37:00,
2013-05-06 02:43:00,42.3,37.0,29.79,NNW,337,0.0,1.2,80,0.00,,,0.00,Rainwise IP-100,2013-05-06 06:43:00,
2013-05-06 02:48:00,42.0,37.0,29.79,NNW,337,0.0,0.0,80,0.00,,,0.00,Rainwise IP-100,2013-05-06 06:48:00,
2013-05-06 02:53:00,41.8,37.0,29.79,NNW,337,0.0,0.0,81,0.00,,,0.00,Rainwise IP-100,2013-05-06 06:53:00,
2013-05-06 02:58:00,41.8,37.0,29.79,NNW,337,0.0,0.0,81,0.00,,,0.00,Rainwise IP-100,2013-05-06 06:58:00,
2013-05-06 03:03:00,41.7,37.0,29.79,NNW,337,0.0,0.0,82,0.00,,,0.00,Rainwise IP-100,2013-05-06 07:03:00,
2013-05-06 03:08:00,41.6,37.0,29.78,NNW,337,0.0,1.4,83,0.00,,,0.00,Rainwise IP-100,2013-05-06 07:08:00,
2013-05-06 03:13:00,41.5,37.0,29.78,NNW,337,0.0,0.0,83,0.00,,,0.00,Rainwise IP-100,2013-05-06 07:13:00,
2013-05-06 03:18:00,41.2,37.0,29.78,NNW,337,0.0,0.0,83,0.00,,,0.00,Rainwise IP-100,2013-05-06 07:18:00,
2013-05-06 03:23:00,40.8,37.0,29.78,NNW,337,0.0,0.0,83,0.00,,,0.00,Rainwise IP-100,2013-05-06 07:23:00,
2013-05-06 03:28:00,40.6,37.0,29.79,NNW,337,2.6,3.3,84,0.00,,,0.00,Rainwise IP-100,2013-05-06 07:28:00,
2013-05-06 03:33:00,40.8,37.0,29.78,NW,315,1.4,4.0,85,0.00,,,0.00,Rainwise IP-100,2013-05-06 07:33:00,
2013-05-06 03:38:00,40.7,37.0,29.78,NNW,337,1.2,2.8,85,0.00,,,0.00,Rainwise IP-100,2013-05-06 07:38:00,
2013-05-06 03:43:00,40.4,36.0,29.78,NNW,337,0.0,2.3,85,0.00,,,0.00,Rainwise IP-100,2013-05-06 07:43:00,
2013-05-06 03:48:00,40.3,36.0,29.78,NNW,337,0.0,1.6,85,0.00,,,0.00,Rainwise IP-100,2013-05-06 07:48:00,
2013-05-06 03:53:00,40.2,37.0,29.78,NNW,337,0.0,0.0,86,0.00,,,0.00,Rainwise IP-100,2013-05-06 07:53:00,
2013-05-06 03:59:00,40.0,37.0,29.78,NNW,337,0.0,1.2,86,0.00,,,0.00,Rainwise IP-100,2013-05-06 07:59:00,
2013-05-06 04:04:00,39.8,37.0,29.78,NNW,337,0.0,0.0,86,0.00,,,0.00,Rainwise IP-100,2013-05-06 08:04:00,
2013-05-06 04:09:00,39.8,37.0,29.79,NNW,337,0.0,0.0,86,0.00,,,0.00,Rainwise IP-100,2013-05-06 08:09:00,
2013-05-06 04:14:00,39.8,37.0,29.79,NNW,337,0.0,0.0,87,0.00,,,0.00,Rainwise IP-100,2013-05-06 08:14:00,
2013-05-06 04:19:00,39.8,37.0,29.78,NNW,337,0.0,0.0,87,0.00,,,0.00,Rainwise IP-100,2013-05-06 08:19:00,
2013-05-06 04:24:00,39.7,37.0,29.79,NNW,337,0.0,0.0,87,0.00,,,0.00,Rainwise IP-100,2013-05-06 08:24:00,
2013-05-06 04:29:00,39.7,37.0,29.79,NNW,337,0.0,0.0,88,0.00,,,0.00,Rainwise IP-100,2013-05-06 08:29:00,
2013-05-06 04:34:00,39.7,37.0,29.79,NNW,337,0.0,1.9,88,0.00,,,0.00,Rainwise IP-100,2013-05-06 08:34:00,
2013-05-06 04:39:00,39.7,37.0,29.79,NNW,337,2.3,2.3,88,0.00,,,0.00,Rainwise IP-100,2013-05-06 08:39:00,
2013-05-06 04:44:00,39.7,37.0,29.79,NW,315,1.4,3.3,87,0.00,,,0.00,Rainwise IP-100,2013-05-06 08:44:00,
2013-05-06 04:49:00,39.6,37.0,29.80,NNW,337,1.6,4.0,87,0.00,,,0.00,Rainwise IP-100,2013-05-06 08:49:00,
2013-05-06 04:54:00,39.4,36.0,29.80,NW,315,1.6,4.2,87,0.00,,,0.00,Rainwise IP-100,2013-05-06 08:54:00,
2013-05-06 04:59:00,39.3,36.0,29.80,NW,315,0.0,2.6,88,0.00,,,0.00,Rainwise IP-100,2013-05-06 08:59:00,
2013-05-06 05:04:00,39.0,36.0,29.80,NW,315,0.0,0.0,88,0.00,,,0.00,Rainwise IP-100,2013-05-06 09:04:00,
2013-05-06 05:09:00,38.7,36.0,29.80,NW,315,0.0,0.0,88,0.00,,,0.00,Rainwise IP-100,2013-05-06 09:09:00,
2013-05-06 05:15:00,38.3,35.0,29.80,NW,315,0.0,0.0,88,0.00,,,0.00,Rainwise IP-100,2013-05-06 09:15:00,
2013-05-06 05:20:00,38.2,35.0,29.80,NW,315,1.9,2.1,89,0.00,,,0.00,Rainwise IP-100,2013-05-06 09:20:00,
2013-05-06 05:25:00,38.2,36.0,29.80,NW,315,0.0,3.0,90,0.00,,,0.00,Rainwise IP-100,2013-05-06 09:25:00,
2013-05-06 05:30:00,38.2,36.0,29.80,NW,315,0.0,0.0,90,0.00,,,0.00,Rainwise IP-100,2013-05-06 09:30:00,
2013-05-06 05:35:00,38.2,36.0,29.80,NNW,337,0.0,2.1,90,0.00,,,0.00,Rainwise IP-100,2013-05-06 09:35:00,
2013-05-06 05:40:00,38.0,36.0,29.80,NNW,337,0.0,0.0,90,0.00,,,0.00,Rainwise IP-100,2013-05-06 09:40:00,
2013-05-06 05:45:00,37.7,36.0,29.81,NNW,337,0.0,0.0,90,0.00,,,0.00,Rainwise IP-100,2013-05-06 09:45:00,
2013-05-06 05:50:00,37.6,36.0,29.81,NNW,337,2.1,2.1,90,0.00,,,0.00,Rainwise IP-100,2013-05-06 09:50:00,
2013-05-06 05:55:00,37.6,36.0,29.81,NNW,337,0.0,4.0,91,0.00,,,0.00,Rainwise IP-100,2013-05-06 09:55:00,
2013-05-06 06:00:00,37.9,36.0,29.81,NNW,337,0.0,1.9,91,0.00,,,0.00,Rainwise IP-100,2013-05-06 10:00:00,
2013-05-06 06:05:00,38.0,36.0,29.80,NNW,337,1.4,1.4,91,0.00,,,0.00,Rainwise IP-100,2013-05-06 10:05:00,
2013-05-06 06:10:00,38.2,36.0,29.81,NNW,337,1.9,1.9,91,0.00,,,0.00,Rainwise IP-100,2013-05-06 10:10:00,
2013-05-06 06:15:00,38.6,37.0,29.81,NNW,337,1.9,2.1,92,0.00,,,0.00,Rainwise IP-100,2013-05-06 10:15:00,
2013-05-06 06:20:00,39.2,37.0,29.81,NNW,337,1.2,2.8,91,0.00,,,0.00,Rainwise IP-100,2013-05-06 10:20:00,
2013-05-06 06:25:00,39.8,38.0,29.81,NNW,337,1.4,2.8,91,0.00,,,0.00,Rainwise IP-100,2013-05-06 10:25:00,
2013-05-06 06:31:00,40.2,38.0,29.81,NNE,22,1.6,3.0,91,0.00,,,0.00,Rainwise IP-100,2013-05-06 10:31:00,
2013-05-06 06:36:00,40.6,39.0,29.81,NNE,22,1.9,2.3,91,0.00,,,0.00,Rainwise IP-100,2013-05-06 10:36:00,
2013-05-06 06:41:00,41.3,39.0,29.81,NNE,22,1.6,2.8,92,0.00,,,0.00,Rainwise IP-100,2013-05-06 10:41:00,
2013-05-06 06:46:00,42.0,40.0,29.82,NNE,22,0.0,2.1,93,0.00,,,0.00,Rainwise IP-100,2013-05-06 10:46:00,
2013-05-06 06:51:00,42.9,41.0,29.82,NNE,22,0.0,1.4,94,0.00,,,0.00,Rainwise IP-100,2013-05-06 10:51:00,
2013-05-06 06:56:00,43.6,43.0,29.81,NNE,22,0.0,0.0,95,0.00,,,0.00,Rainwise IP-100,2013-05-06 10:56:00,
2013-05-06 07:01:00,44.4,43.0,29.81,NNE,22,0.0,0.0,95,0.00,,,0.00,Rainwise IP-100,2013-05-06 11:01:00,
2013-05-06 07:06:00,45.6,45.0,29.82,NNE,22,0.0,0.0,96,0.00,,,0.00,Rainwise IP-100,2013-05-06 11:06:00,
2013-05-06 07:11:00,46.4,45.0,29.82,NNE,22,0.0,0.0,96,0.00,,,0.00,Rainwise IP-100,2013-05-06 11:11:00,
2013-05-06 07:16:00,47.1,45.0,29.82,NNE,22,0.0,1.4,95,0.00,,,0.00,Rainwise IP-100,2013-05-06 11:16:00,
2013-05-06 07:21:00,47.4,46.0,29.82,NNE,22,0.0,2.1,94,0.00,,,0.00,Rainwise IP-100,2013-05-06 11:21:00,
2013-05-06 07:26:00,47.2,44.0,29.82,NNE,22,2.1,2.8,92,0.00,,,0.00,Rainwise IP-100,2013-05-06 11:26:00,
2013-05-06 07:31:00,46.5,44.0,29.82,NE,45,1.6,3.5,90,0.00,,,0.00,Rainwise IP-100,2013-05-06 11:31:00,
2013-05-06 07:36:00,46.4,42.0,29.82,SSE,157,0.0,3.3,87,0.00,,,0.00,Rainwise IP-100,2013-05-06 11:36:00,
2013-05-06 07:41:00,47.9,44.0,29.82,SSW,202,3.7,4.7,84,0.00,,,0.00,Rainwise IP-100,2013-05-06 11:41:00,
2013-05-06 07:47:00,49.2,43.0,29.82,ESE,112,2.6,5.1,81,0.00,,,0.00,Rainwise IP-100,2013-05-06 11:47:00,
2013-05-06 07:52:00,49.7,43.0,29.82,SSE,157,1.9,4.2,78,0.00,,,0.00,Rainwise IP-100,2013-05-06 11:52:00,
2013-05-06 07:57:00,50.3,43.0,29.83,SSW,202,4.9,6.1,75,0.00,,,0.00,Rainwise IP-100,2013-05-06 11:57:00,
2013-05-06 08:02:00,50.4,42.0,29.82,South,180,3.0,6.8,73,0.00,,,0.00,Rainwise IP-100,2013-05-06 12:02:00,
2013-05-06 08:07:00,50.6,41.0,29.82,SSW,202,3.3,5.4,71,0.00,,,0.00,Rainwise IP-100,2013-05-06 12:07:00,
2013-05-06 08:12:00,51.1,42.0,29.82,SSW,202,2.3,4.7,70,0.00,,,0.00,Rainwise IP-100,2013-05-06 12:12:00,
2013-05-06 08:17:00,51.7,42.0,29.82,SSW,202,1.9,4.9,70,0.00,,,0.00,Rainwise IP-100,2013-05-06 12:17:00,
2013-05-06 08:22:00,52.2,42.0,29.82,SSE,157,4.9,5.4,69,0.00,,,0.00,Rainwise IP-100,2013-05-06 12:22:00,
2013-05-06 08:27:00,52.1,42.0,29.82,SSW,202,3.0,9.3,68,0.00,,,0.00,Rainwise IP-100,2013-05-06 12:27:00,
2013-05-06 08:32:00,51.7,41.0,29.82,SSW,202,4.7,9.3,67,0.00,,,0.00,Rainwise IP-100,2013-05-06 12:32:00,
2013-05-06 08:37:00,51.5,41.0,29.82,SSW,202,2.8,7.7,66,0.00,,,0.00,Rainwise IP-100,2013-05-06 12:37:00,
2013-05-06 08:42:00,52.1,41.0,29.83,SSW,202,4.0,7.0,66,0.00,,,0.00,Rainwise IP-100,2013-05-06 12:42:00,
2013-05-06 08:47:00,52.5,41.0,29.82,SSE,157,5.4,8.6,66,0.00,,,0.00,Rainwise IP-100,2013-05-06 12:47:00,
2013-05-06 08:52:00,52.7,41.0,29.82,SSE,157,2.6,7.2,65,0.00,,,0.00,Rainwise IP-100,2013-05-06 12:52:00,
2013-05-06 08:57:00,52.7,41.0,29.82,SSW,202,8.2,9.1,64,0.00,,,0.00,Rainwise IP-100,2013-05-06 12:57:00,
2013-05-06 09:03:00,52.5,41.0,29.82,South,180,5.8,8.6,64,0.00,,,0.00,Rainwise IP-100,2013-05-06 13:03:00,
2013-05-06 09:08:00,52.6,41.0,29.82,SSW,202,5.1,8.4,64,0.00,,,0.00,Rainwise IP-100,2013-05-06 13:08:00,
2013-05-06 09:13:00,52.7,40.0,29.82,SSW,202,8.9,10.3,63,0.00,,,0.00,Rainwise IP-100,2013-05-06 13:13:00,
2013-05-06 09:18:00,52.9,40.0,29.81,SSW,202,5.8,10.0,63,0.00,,,0.00,Rainwise IP-100,2013-05-06 13:18:00,
2013-05-06 09:23:00,53.3,40.0,29.81,SSW,202,3.7,9.3,62,0.00,,,0.00,Rainwise IP-100,2013-05-06 13:23:00,
2013-05-06 09:28:00,54.0,41.0,29.82,SSW,202,4.4,6.3,61,0.00,,,0.00,Rainwise IP-100,2013-05-06 13:28:00,
2013-05-06 09:33:00,55.1,42.0,29.82,ESE,112,6.8,6.8,61,0.00,,,0.00,Rainwise IP-100,2013-05-06 13:33:00,
2013-05-06 09:38:00,55.7,42.0,29.82,SSW,202,3.7,7.2,60,0.00,,,0.00,Rainwise IP-100,2013-05-06 13:38:00,
2013-05-06 09:43:00,56.2,41.0,29.81,SSE,157,4.7,7.0,58,0.00,,,0.00,Rainwise IP-100,2013-05-06 13:43:00,
2013-05-06 09:48:00,57.0,42.0,29.82,SSE,157,1.2,6.1,58,0.00,,,0.00,Rainwise IP-100,2013-05-06 13:48:00,
2013-05-06 09:53:00,58.2,43.0,29.81,ESE,112,0.0,7.5,57,0.00,,,0.00,Rainwise IP-100,2013-05-06 13:53:00,
2013-05-06 09:58:00,58.7,44.0,29.81,ENE,67,1.9,4.2,57,0.00,,,0.00,Rainwise IP-100,2013-05-06 13:58:00,
2013-05-06 10:03:00,59.1,43.0,29.81,SSW,202,4.0,5.8,56,0.00,,,0.00,Rainwise IP-100,2013-05-06 14:03:00,
2013-05-06 10:08:00,59.9,43.0,29.80,SSW,202,0.0,5.8,54,0.00,,,0.00,Rainwise IP-100,2013-05-06 14:08:00,
2013-05-06 10:13:00,60.8,43.0,29.80,South,180,4.9,5.1,52,0.00,,,0.00,Rainwise IP-100,2013-05-06 14:13:00,
2013-05-06 10:19:00,60.7,42.0,29.80,SSE,157,3.5,6.8,50,0.00,,,0.00,Rainwise IP-100,2013-05-06 14:19:00,
2013-05-06 10:24:00,60.5,40.0,29.80,SSW,202,7.0,7.0,48,0.00,,,0.00,Rainwise IP-100,2013-05-06 14:24:00,
2013-05-06 10:29:00,60.8,41.0,29.80,SSW,202,0.0,7.5,48,0.00,,,0.00,Rainwise IP-100,2013-05-06 14:29:00,
2013-05-06 10:34:00,61.8,41.0,29.79,SSW,202,1.2,4.7,47,0.00,,,0.00,Rainwise IP-100,2013-05-06 14:34:00,
2013-05-06 10:39:00,63.4,43.0,29.79,SE,135,1.4,4.7,47,0.00,,,0.00,Rainwise IP-100,2013-05-06 14:39:00,
2013-05-06 10:44:00,63.6,43.0,29.80,East,90,1.4,4.4,47,0.00,,,0.00,Rainwise IP-100,2013-05-06 14:44:00,
2013-05-06 10:49:00,63.7,42.0,29.79,ENE,67,2.1,5.4,46,0.00,,,0.00,Rainwise IP-100,2013-05-06 14:49:00,
2013-05-06 10:54:00,64.5,42.0,29.79,SSE,157,4.4,4.4,45,0.00,,,0.00,Rainwise IP-100,2013-05-06 14:54:00,
2013-05-06 10:59:00,65.5,43.0,29.79,NNE,22,1.4,4.7,44,0.00,,,0.00,Rainwise IP-100,2013-05-06 14:59:00,
2013-05-06 11:04:00,66.1,43.0,29.78,SSW,202,3.7,4.7,43,0.00,,,0.00,Rainwise IP-100,2013-05-06 15:04:00,
2013-05-06 11:08:00,66.5,43.0,29.79,SSW,202,3.5,4.2,42,0.00,,,0.00,Rainwise IP-100,2013-05-06 15:08:00,
2013-05-06 11:14:00,67.3,42.0,29.78,ESE,112,1.4,5.6,40,0.00,,,0.00,Rainwise IP-100,2013-05-06 15:14:00,
2013-05-06 11:19:00,67.3,41.0,29.78,SSE,157,4.7,6.8,38,0.00,,,0.00,Rainwise IP-100,2013-05-06 15:19:00,
2013-05-06 11:24:00,66.9,39.0,29.77,SSE,157,4.9,7.7,36,0.00,,,0.00,Rainwise IP-100,2013-05-06 15:24:00,
2013-05-06 11:29:00,66.8,38.0,29.78,South,180,5.6,7.5,35,0.00,,,0.00,Rainwise IP-100,2013-05-06 15:29:00,
2013-05-06 11:34:00,67.2,37.0,29.78,SSW,202,3.5,7.5,33,0.00,,,0.00,Rainwise IP-100,2013-05-06 15:34:00,
2013-05-06 11:39:00,67.7,37.0,29.77,SSE,157,4.0,8.6,32,0.00,,,0.00,Rainwise IP-100,2013-05-06 15:39:00,
2013-05-06 11:44:00,68.5,36.0,29.77,South,180,5.4,7.5,30,0.00,,,0.00,Rainwise IP-100,2013-05-06 15:44:00,
2013-05-06 11:49:00,68.9,36.0,29.77,SSE,157,0.0,7.5,29,0.00,,,0.00,Rainwise IP-100,2013-05-06 15:49:00,
2013-05-06 11:54:00,69.2,35.0,29.77,SSW,202,5.4,9.6,28,0.00,,,0.00,Rainwise IP-100,2013-05-06 15:54:00,
2013-05-06 11:59:00,69.6,35.0,29.76,SSW,202,0.0,9.3,27,0.00,,,0.00,Rainwise IP-100,2013-05-06 15:59:00,
2013-05-06 12:04:00,70.0,35.0,29.76,SSE,157,2.1,5.1,27,0.00,,,0.00,Rainwise IP-100,2013-05-06 16:04:00,
2013-05-06 12:09:00,69.6,35.0,29.76,SSE,157,7.9,12.8,27,0.00,,,0.00,Rainwise IP-100,2013-05-06 16:09:00,
2013-05-06 12:14:00,69.0,32.0,29.76,SSE,157,5.1,10.3,26,0.00,,,0.00,Rainwise IP-100,2013-05-06 16:14:00,
2013-05-06 12:19:00,69.3,33.0,29.75,ESE,112,0.0,6.3,26,0.00,,,0.00,Rainwise IP-100,2013-05-06 16:19:00,
2013-05-06 12:24:00,70.1,33.0,29.75,ESE,112,0.0,6.5,26,0.00,,,0.00,Rainwise IP-100,2013-05-06 16:24:00,
2013-05-06 12:30:00,71.0,35.0,29.75,WSW,247,2.8,6.3,26,0.00,,,0.00,Rainwise IP-100,2013-05-06 16:30:00,
2013-05-06 12:34:00,71.1,33.0,29.75,ENE,67,3.7,7.2,25,0.00,,,0.00,Rainwise IP-100,2013-05-06 16:34:00,
2013-05-06 12:39:00,71.1,33.0,29.75,SSW,202,4.7,7.0,25,0.00,,,0.00,Rainwise IP-100,2013-05-06 16:39:00,
2013-05-06 12:44:00,71.2,33.0,29.74,WSW,247,3.5,7.7,25,0.00,,,0.00,Rainwise IP-100,2013-05-06 16:44:00,
2013-05-06 12:49:00,71.6,35.0,29.74,South,180,5.8,5.8,25,0.00,,,0.00,Rainwise IP-100,2013-05-06 16:49:00,
2013-05-06 12:54:00,72.1,33.0,29.74,WSW,247,2.8,11.2,24,0.00,,,0.00,Rainwise IP-100,2013-05-06 16:54:00,
2013-05-06 12:59:00,72.6,33.0,29.74,SSW,202,4.2,6.3,24,0.00,,,0.00,Rainwise IP-100,2013-05-06 16:59:00,
2013-05-06 13:04:00,72.7,33.0,29.74,SSW,202,3.7,13.3,23,0.00,,,0.00,Rainwise IP-100,2013-05-06 17:04:00,
2013-05-06 13:09:00,72.6,32.0,29.73,SE,135,1.2,7.9,22,0.00,,,0.00,Rainwise IP-100,2013-05-06 17:09:00,
2013-05-06 13:14:00,72.9,31.0,29.73,WSW,247,8.4,8.4,21,0.00,,,0.00,Rainwise IP-100,2013-05-06 17:14:00,
2013-05-06 13:19:00,72.8,29.0,29.73,SSE,157,3.3,12.4,20,0.00,,,0.00,Rainwise IP-100,2013-05-06 17:19:00,
2013-05-06 13:24:00,72.5,28.0,29.73,SSW,202,5.1,6.5,18,0.00,,,0.00,Rainwise IP-100,2013-05-06 17:24:00,
2013-05-06 13:29:00,72.7,26.0,29.73,WSW,247,5.6,8.2,17,0.00,,,0.00,Rainwise IP-100,2013-05-06 17:29:00,
2013-05-06 13:34:00,72.7,26.0,29.72,West,270,4.0,10.0,17,0.00,,,0.00,Rainwise IP-100,2013-05-06 17:34:00,
2013-05-06 13:39:00,72.9,24.0,29.72,SSW,202,1.9,13.1,16,0.00,,,0.00,Rainwise IP-100,2013-05-06 17:39:00,
2013-05-06 13:44:00,73.2,23.0,29.72,WSW,247,6.5,8.9,15,0.00,,,0.00,Rainwise IP-100,2013-05-06 17:44:00,
2013-05-06 13:50:00,73.5,24.0,29.72,SSE,157,3.5,8.2,15,0.00,,,0.00,Rainwise IP-100,2013-05-06 17:50:00,
2013-05-06 13:55:00,74.0,24.0,29.72,ESE,112,3.0,9.6,15,0.00,,,0.00,Rainwise IP-100,2013-05-06 17:55:00,
2013-05-06 14:00:00,74.1,26.0,29.71,ENE,67,1.9,5.8,16,0.00,,,0.00,Rainwise IP-100,2013-05-06 18:00:00,
2013-05-06 14:05:00,74.0,26.0,29.71,SSE,157,4.2,10.3,16,0.00,,,0.00,Rainwise IP-100,2013-05-06 18:05:00,
2013-05-06 14:10:00,74.1,24.0,29.71,SSW,202,5.1,6.5,15,0.00,,,0.00,Rainwise IP-100,2013-05-06 18:10:00,
2013-05-06 14:15:00,74.0,23.0,29.71,SW,225,8.4,13.1,14,0.00,,,0.00,Rainwise IP-100,2013-05-06 18:15:00,
2013-05-06 14:20:00,74.0,23.0,29.71,SW,225,3.0,10.0,14,0.00,,,0.00,Rainwise IP-100,2013-05-06 18:20:00,
2013-05-06 14:25:00,74.7,23.0,29.70,SE,135,2.8,9.8,14,0.00,,,0.00,Rainwise IP-100,2013-05-06 18:25:00,
2013-05-06 14:30:00,75.1,23.0,29.70,SSW,202,4.2,11.4,14,0.00,,,0.00,Rainwise IP-100,2013-05-06 18:30:00,
2013-05-06 14:35:00,75.0,23.0,29.69,ENE,67,7.0,7.9,14,0.00,,,0.00,Rainwise IP-100,2013-05-06 18:35:00,
2013-05-06 14:40:00,75.1,24.0,29.69,WNW,292,1.2,8.6,15,0.00,,,0.00,Rainwise IP-100,2013-05-06 18:40:00,
2013-05-06 14:45:00,76.2,28.0,29.70,WSW,247,4.0,4.0,16,0.00,,,0.00,Rainwise IP-100,2013-05-06 18:45:00,
2013-05-06 14:50:00,76.3,26.0,29.69,SW,225,11.2,11.7,15,0.00,,,0.00,Rainwise IP-100,2013-05-06 18:50:00,
2013-05-06 14:55:00,75.7,24.0,29.69,SSE,157,0.0,11.4,15,0.00,,,0.00,Rainwise IP-100,2013-05-06 18:55:00,
2013-05-06 15:00:00,75.6,24.0,29.69,SW,225,4.0,10.0,15,0.00,,,0.00,Rainwise IP-100,2013-05-06 19:00:00,
2013-05-06 15:06:00,75.8,26.0,29.69,SSW,202,8.6,8.6,15,0.00,,,0.00,Rainwise IP-100,2013-05-06 19:06:00,
2013-05-06 15:11:00,76.0,26.0,29.69,SSW,202,4.7,12.8,15,0.00,,,0.00,Rainwise IP-100,2013-05-06 19:11:00,
2013-05-06 15:16:00,75.9,24.0,29.68,WSW,247,4.4,8.2,14,0.00,,,0.00,Rainwise IP-100,2013-05-06 19:16:00,
2013-05-06 15:21:00,76.4,24.0,29.68,South,180,6.3,11.7,14,0.00,,,0.00,Rainwise IP-100,2013-05-06 19:21:00,
2013-05-06 15:26:00,76.4,24.0,29.68,WSW,247,2.3,8.4,14,0.00,,,0.00,Rainwise IP-100,2013-05-06 19:26:00,
2013-05-06 15:31:00,76.6,26.0,29.67,SSW,202,6.8,6.8,15,0.00,,,0.00,Rainwise IP-100,2013-05-06 19:31:00,
2013-05-06 15:36:00,76.5,24.0,29.68,SSW,202,6.3,11.4,14,0.00,,,0.00,Rainwise IP-100,2013-05-06 19:36:00,
2013-05-06 15:41:00,75.9,23.0,29.67,SSW,202,4.9,11.4,13,0.00,,,0.00,Rainwise IP-100,2013-05-06 19:41:00,
2013-05-06 15:46:00,75.8,21.0,29.67,South,180,6.8,13.5,12,0.00,,,0.00,Rainwise IP-100,2013-05-06 19:46:00,
2013-05-06 15:51:00,76.2,21.0,29.67,SSW,202,4.4,9.8,12,0.00,,,0.00,Rainwise IP-100,2013-05-06 19:51:00,
2013-05-06 15:56:00,76.7,18.0,29.66,SW,225,2.6,10.0,11,0.00,,,0.00,Rainwise IP-100,2013-05-06 19:56:00,
2013-05-06 16:01:00,76.9,18.0,29.67,SSE,157,11.4,11.4,11,0.00,,,0.00,Rainwise IP-100,2013-05-06 20:01:00,
2013-05-06 16:06:00,76.9,18.0,29.66,SSW,202,6.3,12.4,11,0.00,,,0.00,Rainwise IP-100,2013-05-06 20:06:00,
2013-05-06 16:11:00,77.1,18.0,29.67,South,180,2.8,10.3,11,0.00,,,0.00,Rainwise IP-100,2013-05-06 20:11:00,
2013-05-06 16:16:00,77.3,18.0,29.67,SSE,157,3.7,8.4,11,0.00,,,0.00,Rainwise IP-100,2013-05-06 20:16:00,
2013-05-06 16:22:00,77.4,18.0,29.66,SE,135,4.4,11.0,11,0.00,,,0.00,Rainwise IP-100,2013-05-06 20:22:00,
2013-05-06 16:27:00,77.5,21.0,29.66,SSW,202,4.9,12.4,11,0.00,,,0.00,Rainwise IP-100,2013-05-06 20:27:00,
2013-05-06 16:32:00,77.2,18.0,29.66,SSW,202,4.4,11.9,11,0.00,,,0.00,Rainwise IP-100,2013-05-06 20:32:00,
2013-05-06 16:37:00,76.8,21.0,29.65,SSW,202,8.4,11.4,12,0.00,,,0.00,Rainwise IP-100,2013-05-06 20:37:00,
2013-05-06 16:42:00,77.0,18.0,29.65,SSW,202,8.2,9.3,11,0.00,,,0.00,Rainwise IP-100,2013-05-06 20:42:00,
2013-05-06 16:47:00,77.1,18.0,29.65,SSW,202,5.1,13.1,11,0.00,,,0.00,Rainwise IP-100,2013-05-06 20:47:00,
2013-05-06 16:52:00,76.9,18.0,29.65,SSW,202,7.5,12.1,11,0.00,,,0.00,Rainwise IP-100,2013-05-06 20:52:00,
2013-05-06 16:57:00,76.8,16.0,29.65,SSW,202,4.4,10.5,10,0.00,,,0.00,Rainwise IP-100,2013-05-06 20:57:00,
2013-05-06 17:02:00,77.0,16.0,29.65,SW,225,4.4,10.5,10,0.00,,,0.00,Rainwise IP-100,2013-05-06 21:02:00,
2013-05-06 17:07:00,77.1,18.0,29.65,SSW,202,7.7,10.0,11,0.00,,,0.00,Rainwise IP-100,2013-05-06 21:07:00,
2013-05-06 17:12:00,77.0,18.0,29.65,WSW,247,1.6,8.4,11,0.00,,,0.00,Rainwise IP-100,2013-05-06 21:12:00,
2013-05-06 17:17:00,77.2,18.0,29.64,SW,225,7.0,10.0,10,0.00,,,0.00,Rainwise IP-100,2013-05-06 21:17:00,
2013-05-06 17:22:00,77.3,16.0,29.65,SSE,157,1.9,9.6,9,0.00,,,0.00,Rainwise IP-100,2013-05-06 21:22:00,
2013-05-06 17:27:00,77.3,16.0,29.65,SSW,202,5.1,6.8,9,0.00,,,0.00,Rainwise IP-100,2013-05-06 21:27:00,
2013-05-06 17:32:00,77.2,16.0,29.65,WSW,247,6.8,9.3,9,0.00,,,0.00,Rainwise IP-100,2013-05-06 21:32:00,
2013-05-06 17:38:00,77.1,16.0,29.65,SSW,202,2.6,9.3,10,0.00,,,0.00,Rainwise IP-100,2013-05-06 21:38:00,
2013-05-06 17:43:00,76.9,14.0,29.64,WSW,247,5.4,10.3,9,0.00,,,0.00,Rainwise IP-100,2013-05-06 21:43:00,
2013-05-06 17:48:00,76.7,14.0,29.64,SSE,157,4.0,9.1,9,0.00,,,0.00,Rainwise IP-100,2013-05-06 21:48:00,
2013-05-06 17:53:00,76.8,14.0,29.64,SSW,202,4.7,8.6,9,0.00,,,0.00,Rainwise IP-100,2013-05-06 21:53:00,
2013-05-06 17:58:00,76.9,14.0,29.64,SSW,202,7.0,7.5,9,0.00,,,0.00,Rainwise IP-100,2013-05-06 21:58:00,
2013-05-06 18:03:00,76.7,14.0,29.64,SSW,202,5.4,7.5,9,0.00,,,0.00,Rainwise IP-100,2013-05-06 22:03:00,
2013-05-06 18:08:00,76.4,11.0,29.64,South,180,4.7,9.1,8,0.00,,,0.00,Rainwise IP-100,2013-05-06 22:08:00,
2013-05-06 18:13:00,76.3,11.0,29.64,SSW,202,7.2,8.9,8,0.00,,,0.00,Rainwise IP-100,2013-05-06 22:13:00,
2013-05-06 18:18:00,76.0,14.0,29.63,SW,225,4.0,8.4,9,0.00,,,0.00,Rainwise IP-100,2013-05-06 22:18:00,
2013-05-06 18:23:00,75.6,14.0,29.64,SSW,202,4.2,8.9,9,0.00,,,0.00,Rainwise IP-100,2013-05-06 22:23:00,
2013-05-06 18:28:00,75.1,14.0,29.64,SSW,202,4.9,5.8,9,0.00,,,0.00,Rainwise IP-100,2013-05-06 22:28:00,
2013-05-06 18:33:00,74.8,14.0,29.64,SSW,202,7.0,7.7,9,0.00,,,0.00,Rainwise IP-100,2013-05-06 22:33:00,
2013-05-06 18:38:00,74.6,16.0,29.64,SSE,157,5.4,8.6,10,0.00,,,0.00,Rainwise IP-100,2013-05-06 22:38:00,
2013-05-06 18:43:00,74.4,16.0,29.64,SW,225,3.5,7.7,10,0.00,,,0.00,Rainwise IP-100,2013-05-06 22:43:00,
2013-05-06 18:49:00,74.1,16.0,29.64,SW,225,3.5,5.6,11,0.00,,,0.00,Rainwise IP-100,2013-05-06 22:49:00,
2013-05-06 18:54:00,73.9,16.0,29.64,SSW,202,5.6,5.8,11,0.00,,,0.00,Rainwise IP-100,2013-05-06 22:54:00,
2013-05-06 18:59:00,73.8,16.0,29.64,SW,225,7.2,7.2,11,0.00,,,0.00,Rainwise IP-100,2013-05-06 22:59:00,
2013-05-06 19:04:00,73.5,18.0,29.64,SW,225,4.2,7.7,12,0.00,,,0.00,Rainwise IP-100,2013-05-06 23:04:00,
2013-05-06 19:09:00,73.2,18.0,29.64,SW,225,3.3,7.2,12,0.00,,,0.00,Rainwise IP-100,2013-05-06 23:09:00,
2013-05-06 19:14:00,72.8,18.0,29.64,WSW,247,5.6,5.6,12,0.00,,,0.00,Rainwise IP-100,2013-05-06 23:14:00,
2013-05-06 19:19:00,72.6,18.0,29.64,SSW,202,4.2,6.5,12,0.00,,,0.00,Rainwise IP-100,2013-05-06 23:19:00,
2013-05-06 19:24:00,72.3,18.0,29.65,SW,225,4.2,6.1,12,0.00,,,0.00,Rainwise IP-100,2013-05-06 23:24:00,
2013-05-06 19:29:00,72.0,18.0,29.64,WSW,247,3.3,5.4,13,0.00,,,0.00,Rainwise IP-100,2013-05-06 23:29:00,
2013-05-06 19:34:00,71.7,18.0,29.65,SW,225,2.8,6.1,13,0.00,,,0.00,Rainwise IP-100,2013-05-06 23:34:00,
2013-05-06 19:39:00,71.2,21.0,29.65,WSW,247,3.0,5.6,14,0.00,,,0.00,Rainwise IP-100,2013-05-06 23:39:00,
2013-05-06 19:44:00,70.2,21.0,29.65,SSE,157,1.4,4.7,15,0.00,,,0.00,Rainwise IP-100,2013-05-06 23:44:00,
2013-05-06 19:49:00,68.7,23.0,29.65,WSW,247,2.3,2.6,17,0.00,,,0.00,Rainwise IP-100,2013-05-06 23:49:00,
2013-05-06 19:54:00,67.9,23.0,29.65,WSW,247,0.0,2.8,18,0.00,,,0.00,Rainwise IP-100,2013-05-06 23:54:00,
2013-05-06 19:59:00,66.9,24.0,29.65,WSW,247,0.0,0.0,20,0.00,,,0.00,Rainwise IP-100,2013-05-06 23:59:00,
2013-05-06 20:05:00,65.8,24.0,29.66,WSW,247,0.0,0.0,21,0.00,,,0.00,Rainwise IP-100,2013-05-07 00:05:00,
2013-05-06 20:10:00,65.0,26.0,29.66,WSW,247,0.0,0.0,22,0.00,,,0.00,Rainwise IP-100,2013-05-07 00:10:00,
2013-05-06 20:15:00,64.1,26.0,29.67,WSW,247,0.0,0.0,24,0.00,,,0.00,Rainwise IP-100,2013-05-07 00:15:00,
2013-05-06 20:20:00,63.4,28.0,29.67,WSW,247,0.0,1.2,25,0.00,,,0.00,Rainwise IP-100,2013-05-07 00:20:00,
2013-05-06 20:25:00,62.8,26.0,29.67,WSW,247,0.0,0.0,24,0.00,,,0.00,Rainwise IP-100,2013-05-07 00:25:00,
2013-05-06 20:30:00,62.2,26.0,29.67,WSW,247,0.0,0.0,25,0.00,,,0.00,Rainwise IP-100,2013-05-07 00:30:00,
2013-05-06 20:35:00,61.6,28.0,29.67,WSW,247,0.0,1.2,27,0.00,,,0.00,Rainwise IP-100,2013-05-07 00:35:00,
2013-05-06 20:40:00,61.0,29.0,29.67,WSW,247,0.0,0.0,29,0.00,,,0.00,Rainwise IP-100,2013-05-07 00:40:00,
2013-05-06 20:45:00,60.5,29.0,29.67,WSW,247,0.0,1.4,30,0.00,,,0.00,Rainwise IP-100,2013-05-07 00:45:00,
2013-05-06 20:50:00,60.1,29.0,29.68,WSW,247,0.0,1.2,31,0.00,,,0.00,Rainwise IP-100,2013-05-07 00:50:00,
2013-05-06 20:55:00,59.8,29.0,29.68,WSW,247,0.0,1.2,31,0.00,,,0.00,Rainwise IP-100,2013-05-07 00:55:00,
2013-05-06 21:00:00,59.3,29.0,29.69,WSW,247,0.0,0.0,31,0.00,,,0.00,Rainwise IP-100,2013-05-07 01:00:00,
2013-05-06 21:05:00,58.9,31.0,29.69,WSW,247,0.0,0.0,33,0.00,,,0.00,Rainwise IP-100,2013-05-07 01:05:00,
2013-05-06 21:10:00,58.5,31.0,29.69,WSW,247,0.0,0.0,34,0.00,,,0.00,Rainwise IP-100,2013-05-07 01:10:00,
2013-05-06 21:15:00,58.0,31.0,29.69,WSW,247,0.0,0.0,35,0.00,,,0.00,Rainwise IP-100,2013-05-07 01:15:00,
2013-05-06 21:21:00,57.5,31.0,29.69,WSW,247,0.0,1.9,36,0.00,,,0.00,Rainwise IP-100,2013-05-07 01:21:00,
2013-05-06 21:26:00,57.1,32.0,29.69,WSW,247,0.0,0.0,38,0.00,,,0.00,Rainwise IP-100,2013-05-07 01:26:00,
2013-05-06 21:31:00,56.6,31.0,29.70,WSW,247,0.0,0.0,38,0.00,,,0.00,Rainwise IP-100,2013-05-07 01:31:00,
2013-05-06 21:36:00,56.1,32.0,29.70,WSW,247,0.0,0.0,39,0.00,,,0.00,Rainwise IP-100,2013-05-07 01:36:00,
2013-05-06 21:41:00,55.6,32.0,29.70,WSW,247,0.0,0.0,40,0.00,,,0.00,Rainwise IP-100,2013-05-07 01:41:00,
2013-05-06 21:46:00,55.0,32.0,29.70,WSW,247,0.0,0.0,41,0.00,,,0.00,Rainwise IP-100,2013-05-07 01:46:00,
2013-05-06 21:51:00,54.5,32.0,29.71,WSW,247,0.0,0.0,43,0.00,,,0.00,Rainwise IP-100,2013-05-07 01:51:00,
2013-05-06 21:56:00,54.3,33.0,29.71,WSW,247,0.0,0.0,44,0.00,,,0.00,Rainwise IP-100,2013-05-07 01:56:00,
2013-05-06 22:01:00,54.4,33.0,29.71,WSW,247,0.0,0.0,44,0.00,,,0.00,Rainwise IP-100,2013-05-07 02:01:00,
2013-05-06 22:06:00,54.2,33.0,29.71,WSW,247,0.0,0.0,45,0.00,,,0.00,Rainwise IP-100,2013-05-07 02:06:00,
2013-05-06 22:11:00,53.8,33.0,29.71,WSW,247,0.0,1.2,46,0.00,,,0.00,Rainwise IP-100,2013-05-07 02:11:00,
2013-05-06 22:16:00,53.6,33.0,29.71,WSW,247,0.0,0.0,47,0.00,,,0.00,Rainwise IP-100,2013-05-07 02:16:00,
2013-05-06 22:21:00,53.4,33.0,29.71,WSW,247,0.0,1.6,47,0.00,,,0.00,Rainwise IP-100,2013-05-07 02:21:00,
2013-05-06 22:26:00,53.2,33.0,29.71,WSW,247,0.0,0.0,48,0.00,,,0.00,Rainwise IP-100,2013-05-07 02:26:00,
2013-05-06 22:31:00,52.7,35.0,29.70,WSW,247,0.0,0.0,49,0.00,,,0.00,Rainwise IP-100,2013-05-07 02:31:00,
2013-05-06 22:37:00,52.2,35.0,29.70,WSW,247,0.0,0.0,50,0.00,,,0.00,Rainwise IP-100,2013-05-07 02:37:00,
2013-05-06 22:42:00,51.8,35.0,29.71,WSW,247,0.0,0.0,51,0.00,,,0.00,Rainwise IP-100,2013-05-07 02:42:00,
2013-05-06 22:47:00,51.7,35.0,29.70,WSW,247,0.0,1.4,52,0.00,,,0.00,Rainwise IP-100,2013-05-07 02:47:00,
2013-05-06 22:52:00,51.8,36.0,29.71,WSW,247,0.0,1.2,53,0.00,,,0.00,Rainwise IP-100,2013-05-07 02:52:00,
2013-05-06 22:57:00,51.7,36.0,29.70,WSW,247,0.0,0.0,53,0.00,,,0.00,Rainwise IP-100,2013-05-07 02:57:00,
2013-05-06 23:02:00,51.5,36.0,29.70,WSW,247,1.2,1.2,54,0.00,,,0.00,Rainwise IP-100,2013-05-07 03:02:00,
2013-05-06 23:07:00,51.3,36.0,29.70,WSW,247,0.0,1.4,54,0.00,,,0.00,Rainwise IP-100,2013-05-07 03:07:00,
2013-05-06 23:12:00,51.1,36.0,29.70,WSW,247,0.0,1.2,55,0.00,,,0.00,Rainwise IP-100,2013-05-07 03:12:00,
2013-05-06 23:17:00,50.9,36.0,29.70,WSW,247,0.0,0.0,55,0.00,,,0.00,Rainwise IP-100,2013-05-07 03:17:00,
2013-05-06 23:22:00,50.5,36.0,29.70,WSW,247,0.0,0.0,56,0.00,,,0.00,Rainwise IP-100,2013-05-07 03:22:00,
2013-05-06 23:27:00,49.9,36.0,29.70,WSW,247,0.0,0.0,57,0.00,,,0.00,Rainwise IP-100,2013-05-07 03:27:00,
2013-05-06 23:32:00,49.4,35.0,29.70,WSW,247,0.0,0.0,57,0.00,,,0.00,Rainwise IP-100,2013-05-07 03:32:00,
2013-05-06 23:37:00,49.3,36.0,29.70,WSW,247,0.0,1.4,59,0.00,,,0.00,Rainwise IP-100,2013-05-07 03:37:00,
2013-05-06 23:42:00,49.5,36.0,29.70,WSW,247,1.6,1.9,59,0.00,,,0.00,Rainwise IP-100,2013-05-07 03:42:00,
2013-05-06 23:48:00,49.7,36.0,29.70,WSW,247,0.0,1.9,59,0.00,,,0.00,Rainwise IP-100,2013-05-07 03:48:00,
2013-05-06 23:53:00,49.5,36.0,29.71,NNW,337,0.0,3.3,59,0.00,,,0.00,Rainwise IP-100,2013-05-07 03:53:00,
2013-05-06 23:58:00,49.2,36.0,29.70,NNW,337,1.2,0.0,59,0.00,,,0.00,Rainwise IP-100,2013-05-07 03:58:00,